| time (UTC) | temp C | wind direction | speed KPH | gust KPH | rain 1hr cm | rain 24hr cm | rain mn cm | humidity % | barometer mb |
| 20260506233055 | 10 | 0 | 0.0 | 1.6 | 0.00 | 0.00 | 0.00 | 58 | 1010.3 |
| 20260506232554 | 10 | 0 | 0.0 | 3.2 | 0.00 | 0.00 | 0.00 | 56 | 1010.3 |
| 20260506232054 | 10 | 0 | 0.0 | 4.8 | 0.00 | 0.00 | 0.00 | 57 | 1010.3 |
| 20260506231608 | 11 | 346 | 0.0 | 6.4 | 0.00 | 0.00 | 0.00 | 57 | 1010.2 |
| 20260506231054 | 11 | 346 | 1.6 | 8.0 | 0.00 | 0.00 | 0.00 | 55 | 1010.0 |
| 20260506230553 | 11 | 342 | 1.6 | 9.7 | 0.00 | 0.00 | 0.00 | 54 | 1010.1 |
| 20260506230114 | 11 | 342 | 3.2 | 9.7 | 0.00 | 0.00 | 0.00 | 54 | 1010.1 |
| 20260506225554 | 11 | 344 | 4.8 | 9.7 | 0.00 | 0.00 | 0.00 | 53 | 1010.1 |
| 20260506225054 | 11 | 344 | 3.2 | 9.7 | 0.00 | 0.00 | 0.00 | 53 | 1009.9 |
| 20260506224556 | 11 | 311 | 0.0 | 4.8 | 0.00 | 0.00 | 0.00 | 51 | 1009.9 |
| 20260506224053 | 11 | 330 | 0.0 | 4.8 | 0.00 | 0.00 | 0.00 | 49 | 1009.9 |
| 20260506223552 | 11 | 317 | 0.0 | 8.0 | 0.00 | 0.00 | 0.00 | 46 | 1009.9 |
| 20260506223100 | 11 | 321 | 1.6 | 12.9 | 0.00 | 0.00 | 0.00 | 51 | 1010.1 |
| 20260506222553 | 11 | 0 | 3.2 | 12.9 | 0.00 | 0.00 | 0.00 | 48 | 1010.1 |
| 20260506222057 | 11 | 5 | 1.6 | 6.4 | 0.00 | 0.00 | 0.00 | 52 | 1010.0 |
| 20260506221619 | 11 | 315 | 1.6 | 6.4 | 0.00 | 0.00 | 0.00 | 52 | 1010.1 |
| 20260506221054 | 11 | 330 | 1.6 | 6.4 | 0.00 | 0.00 | 0.00 | 48 | 1010.0 |
| 20260506220554 | 12 | 0 | 0.0 | 12.9 | 0.00 | 0.00 | 0.00 | 50 | 1010.1 |
| 20260506220122 | 12 | 308 | 3.2 | 12.9 | 0.00 | 0.00 | 0.00 | 51 | 1010.0 |
| 20260506215555 | 12 | 352 | 3.2 | 8.0 | 0.00 | 0.00 | 0.00 | 49 | 1010.0 |
| 20260506215053 | 12 | 352 | 3.2 | 9.7 | 0.00 | 0.00 | 0.00 | 50 | 1010.1 |
| 20260506214553 | 11 | 0 | 4.8 | 9.7 | 0.00 | 0.00 | 0.00 | 48 | 1010.0 |
| 20260506214055 | 11 | 339 | 1.6 | 14.5 | 0.00 | 0.00 | 0.00 | 46 | 1010.0 |
| 20260506213555 | 11 | 311 | 4.8 | 14.5 | 0.00 | 0.00 | 0.00 | 49 | 1010.1 |
| 20260506213109 | 11 | 345 | 4.8 | 12.9 | 0.00 | 0.00 | 0.00 | 49 | 1010.0 |
| 20260506212556 | 12 | 319 | 4.8 | 12.9 | 0.00 | 0.00 | 0.00 | 50 | 1009.9 |
| 20260506212059 | 12 | 0 | 3.2 | 12.9 | 0.00 | 0.00 | 0.00 | 46 | 1009.9 |
| 20260506211558 | 12 | 343 | 4.8 | 14.5 | 0.00 | 0.00 | 0.00 | 49 | 1009.8 |
| 20260506211055 | 12 | 33 | 3.2 | 14.5 | 0.00 | 0.00 | 0.00 | 48 | 1009.9 |
| 20260506210555 | 12 | 337 | 6.4 | 14.5 | 0.00 | 0.00 | 0.00 | 49 | 1009.8 |
| 20260506210104 | 12 | 0 | 1.6 | 12.9 | 0.00 | 0.00 | 0.00 | 53 | 1009.7 |
| 20260506205555 | 12 | 15 | 3.2 | 16.1 | 0.00 | 0.00 | 0.00 | 49 | 1009.8 |
| 20260506205054 | 12 | 5 | 4.8 | 16.1 | 0.00 | 0.00 | 0.00 | 49 | 1009.9 |
| 20260506204605 | 12 | 323 | 4.8 | 12.9 | 0.00 | 0.00 | 0.00 | 52 | 1009.9 |
| 20260506204054 | 11 | 348 | 4.8 | 16.1 | 0.00 | 0.00 | 0.00 | 51 | 1009.7 |
| 20260506203554 | 12 | 351 | 3.2 | 19.3 | 0.00 | 0.00 | 0.00 | 51 | 1009.9 |
| 20260506203055 | 12 | 329 | 4.8 | 19.3 | 0.00 | 0.00 | 0.00 | 47 | 1010.0 |
| 20260506202555 | 12 | 352 | 8.0 | 19.3 | 0.00 | 0.00 | 0.00 | 50 | 1009.9 |
| 20260506202056 | 12 | 13 | 4.8 | 12.9 | 0.00 | 0.00 | 0.00 | 49 | 1009.8 |
| 20260506201555 | 12 | 11 | 6.4 | 12.9 | 0.00 | 0.00 | 0.00 | 46 | 1009.9 |
| 20260506201053 | 12 | 295 | 3.2 | 16.1 | 0.00 | 0.00 | 0.00 | 52 | 1009.9 |
| 20260506200555 | 12 | 287 | 6.4 | 16.1 | 0.00 | 0.00 | 0.00 | 45 | 1010.0 |
| 20260506200054 | 13 | 32 | 8.0 | 16.1 | 0.00 | 0.00 | 0.00 | 47 | 1010.0 |
| 20260506195557 | 13 | 347 | 6.4 | 14.5 | 0.00 | 0.00 | 0.00 | 50 | 1010.2 |
| 20260506195053 | 12 | 232 | 4.8 | 19.3 | 0.00 | 0.00 | 0.00 | 46 | 1010.1 |
| 20260506194556 | 13 | 347 | 6.4 | 24.1 | 0.00 | 0.00 | 0.00 | 50 | 1010.2 |
| 20260506194056 | 13 | 286 | 8.0 | 24.1 | 0.00 | 0.00 | 0.00 | 50 | 1010.1 |
| 20260506193556 | 13 | 343 | 4.8 | 14.5 | 0.00 | 0.00 | 0.00 | 52 | 1010.3 |
| 20260506193054 | 12 | 345 | 4.8 | 16.1 | 0.00 | 0.00 | 0.00 | 45 | 1010.2 |
| 20260506192556 | 12 | 341 | 8.0 | 20.9 | 0.00 | 0.00 | 0.00 | 51 | 1010.1 |
| 20260506192055 | 12 | 360 | 6.4 | 20.9 | 0.00 | 0.00 | 0.00 | 54 | 1010.4 |
| 20260506191606 | 12 | 324 | 8.0 | 16.1 | 0.00 | 0.00 | 0.00 | 48 | 1010.4 |
| 20260506191055 | 13 | 20 | 6.4 | 14.5 | 0.00 | 0.00 | 0.00 | 48 | 1010.5 |
| 20260506190556 | 12 | 316 | 4.8 | 9.7 | 0.00 | 0.00 | 0.00 | 54 | 1010.5 |
| 20260506190057 | 11 | 316 | 1.6 | 9.7 | 0.00 | 0.00 | 0.00 | 53 | 1010.6 |
| 20260506185555 | 11 | 241 | 1.6 | 19.3 | 0.00 | 0.00 | 0.00 | 53 | 1010.5 |
| 20260506185055 | 11 | 270 | 3.2 | 19.3 | 0.00 | 0.00 | 0.00 | 50 | 1010.4 |
| 20260506184627 | 12 | 325 | 9.7 | 17.7 | 0.00 | 0.00 | 0.00 | 53 | 1010.3 |
| 20260506184056 | 12 | 340 | 4.8 | 12.9 | 0.00 | 0.00 | 0.00 | 48 | 1010.4 |
| 20260506183558 | 12 | 331 | 4.8 | 12.9 | 0.00 | 0.00 | 0.00 | 50 | 1010.2 |
| 20260506183104 | 12 | 352 | 4.8 | 20.9 | 0.00 | 0.00 | 0.00 | 51 | 1010.3 |
| 20260506182556 | 12 | 32 | 6.4 | 20.9 | 0.00 | 0.00 | 0.00 | 53 | 1010.3 |
| 20260506182056 | 11 | 5 | 9.7 | 20.9 | 0.00 | 0.00 | 0.00 | 47 | 1010.3 |
| 20260506181559 | 12 | 318 | 3.2 | 19.3 | 0.00 | 0.00 | 0.00 | 51 | 1010.2 |
| 20260506181057 | 12 | 329 | 3.2 | 19.3 | 0.00 | 0.00 | 0.00 | 53 | 1010.1 |
| 20260506180556 | 11 | 335 | 6.4 | 17.7 | 0.00 | 0.00 | 0.00 | 53 | 1010.1 |
| 20260506180058 | 12 | 327 | 6.4 | 14.5 | 0.00 | 0.00 | 0.00 | 53 | 1010.3 |
| 20260506175554 | 12 | 315 | 4.8 | 12.9 | 0.00 | 0.00 | 0.00 | 53 | 1010.2 |
| 20260506175053 | 11 | 335 | 4.8 | 12.9 | 0.00 | 0.00 | 0.00 | 52 | 1010.3 |
| 20260506174557 | 11 | 352 | 4.8 | 12.9 | 0.00 | 0.00 | 0.00 | 48 | 1010.5 |
| 20260506174055 | 11 | 275 | 3.2 | 14.5 | 0.00 | 0.00 | 0.00 | 52 | 1010.5 |
| 20260506173556 | 11 | 277 | 3.2 | 14.5 | 0.00 | 0.00 | 0.00 | 52 | 1010.5 |
| 20260506173100 | 11 | 262 | 3.2 | 20.9 | 0.00 | 0.00 | 0.00 | 52 | 1010.7 |
| 20260506172555 | 11 | 21 | 6.4 | 20.9 | 0.00 | 0.00 | 0.00 | 55 | 1010.9 |
| 20260506172055 | 11 | 296 | 6.4 | 16.1 | 0.00 | 0.00 | 0.00 | 51 | 1010.9 |
| 20260506171607 | 10 | 11 | 1.6 | 16.1 | 0.00 | 0.00 | 0.00 | 54 | 1011.0 |
| 20260506171055 | 10 | 314 | 4.8 | 16.1 | 0.00 | 0.00 | 0.00 | 55 | 1011.0 |
| 20260506170555 | 10 | 10 | 6.4 | 12.9 | 0.00 | 0.00 | 0.00 | 51 | 1011.0 |
| 20260506170100 | 11 | 338 | 4.8 | 17.7 | 0.00 | 0.00 | 0.00 | 51 | 1011.0 |
| 20260506165555 | 11 | 309 | 4.8 | 17.7 | 0.00 | 0.05 | 0.00 | 54 | 1010.7 |
| 20260506165055 | 10 | 346 | 8.0 | 17.7 | 0.00 | 0.05 | 0.00 | 51 | 1010.7 |
| 20260506164555 | 10 | 316 | 4.8 | 16.1 | 0.00 | 0.05 | 0.00 | 52 | 1010.8 |
| 20260506164055 | 10 | 319 | 6.4 | 16.1 | 0.00 | 0.05 | 0.00 | 51 | 1010.7 |
| 20260506163554 | 10 | 329 | 3.2 | 12.9 | 0.00 | 0.05 | 0.00 | 50 | 1010.7 |
| 20260506163107 | 10 | 13 | 4.8 | 12.9 | 0.00 | 0.05 | 0.00 | 54 | 1010.7 |
| 20260506162554 | 10 | 298 | 4.8 | 14.5 | 0.00 | 0.05 | 0.00 | 57 | 1010.6 |
| 20260506162058 | 10 | 344 | 6.4 | 14.5 | 0.00 | 0.05 | 0.00 | 57 | 1010.7 |
| 20260506161557 | 10 | 14 | 3.2 | 16.1 | 0.00 | 0.05 | 0.00 | 53 | 1010.4 |
| 20260506161055 | 10 | 249 | 3.2 | 19.3 | 0.00 | 0.05 | 0.00 | 54 | 1010.5 |
| 20260506160556 | 10 | 293 | 4.8 | 19.3 | 0.00 | 0.05 | 0.00 | 54 | 1010.4 |
| 20260506160107 | 10 | 344 | 4.8 | 22.5 | 0.00 | 0.05 | 0.00 | 52 | 1010.5 |
| 20260506155555 | 10 | 263 | 9.7 | 22.5 | 0.00 | 0.05 | 0.00 | 48 | 1010.4 |
| 20260506155056 | 11 | 360 | 8.0 | 17.7 | 0.00 | 0.05 | 0.00 | 51 | 1010.4 |
| 20260506154558 | 11 | 348 | 6.4 | 17.7 | 0.00 | 0.05 | 0.00 | 53 | 1010.3 |
| 20260506154058 | 11 | 5 | 3.2 | 17.7 | 0.00 | 0.05 | 0.00 | 54 | 1010.2 |
| 20260506153555 | 11 | 327 | 3.2 | 17.7 | 0.00 | 0.05 | 0.00 | 55 | 1010.3 |
| 20260506153057 | 11 | 15 | 4.8 | 17.7 | 0.00 | 0.05 | 0.00 | 54 | 1010.2 |
| 20260506152555 | 11 | 12 | 3.2 | 12.9 | 0.00 | 0.05 | 0.00 | 55 | 1010.3 |
| 20260506152055 | 10 | 31 | 4.8 | 14.5 | 0.00 | 0.05 | 0.00 | 56 | 1010.2 |
| 20260506151557 | 10 | 258 | 4.8 | 14.5 | 0.00 | 0.05 | 0.00 | 52 | 1010.2 |
| 20260506151055 | 11 | 352 | 4.8 | 14.5 | 0.00 | 0.05 | 0.00 | 53 | 1010.2 |
| 20260506150555 | 10 | 348 | 6.4 | 14.5 | 0.00 | 0.05 | 0.00 | 53 | 1010.0 |
| 20260506150056 | 11 | 338 | 4.8 | 14.5 | 0.00 | 0.05 | 0.00 | 56 | 1010.0 |
| 20260506145555 | 10 | 294 | 4.8 | 14.5 | 0.00 | 0.05 | 0.00 | 55 | 1010.1 |
| 20260506145054 | 10 | 352 | 4.8 | 14.5 | 0.00 | 0.05 | 0.00 | 55 | 1009.9 |
| 20260506144604 | 10 | 296 | 6.4 | 14.5 | 0.00 | 0.05 | 0.00 | 50 | 1009.8 |
| 20260506144055 | 11 | 288 | 3.2 | 11.3 | 0.00 | 0.05 | 0.00 | 55 | 1009.9 |
| 20260506143555 | 11 | 279 | 1.6 | 11.3 | 0.00 | 0.05 | 0.00 | 51 | 1009.8 |
| 20260506143056 | 11 | 5 | 3.2 | 12.9 | 0.00 | 0.05 | 0.00 | 55 | 1009.7 |
| 20260506142555 | 11 | 302 | 3.2 | 12.9 | 0.00 | 0.05 | 0.00 | 59 | 1009.7 |
| 20260506142056 | 10 | 297 | 6.4 | 12.9 | 0.00 | 0.05 | 0.00 | 55 | 1009.7 |
| 20260506141553 | 10 | 344 | 6.4 | 20.9 | 0.00 | 0.05 | 0.00 | 56 | 1009.4 |
| 20260506141055 | 10 | 319 | 3.2 | 20.9 | 0.00 | 0.05 | 0.00 | 54 | 1009.6 |
| 20260506140556 | 10 | 334 | 8.0 | 20.9 | 0.00 | 0.05 | 0.00 | 56 | 1009.7 |
| 20260506140101 | 10 | 272 | 4.8 | 14.5 | 0.00 | 0.05 | 0.00 | 56 | 1009.6 |
| 20260506135554 | 10 | 360 | 6.4 | 16.1 | 0.00 | 0.05 | 0.00 | 56 | 1009.7 |
| 20260506135056 | 10 | 14 | 6.4 | 16.1 | 0.00 | 0.05 | 0.00 | 56 | 1009.5 |
| 20260506134556 | 10 | 342 | 4.8 | 17.7 | 0.00 | 0.05 | 0.00 | 57 | 1009.4 |
| 20260506134058 | 10 | 297 | 6.4 | 17.7 | 0.00 | 0.05 | 0.00 | 59 | 1009.3 |
| 20260506133556 | 9 | 5 | 6.4 | 19.3 | 0.00 | 0.05 | 0.00 | 56 | 1009.3 |
| 20260506133054 | 10 | 21 | 6.4 | 19.3 | 0.00 | 0.05 | 0.00 | 55 | 1009.4 |
| 20260506132556 | 9 | 347 | 6.4 | 17.7 | 0.00 | 0.05 | 0.00 | 59 | 1009.4 |
| 20260506132059 | 9 | 333 | 8.0 | 17.7 | 0.00 | 0.05 | 0.00 | 57 | 1009.4 |
| 20260506131607 | 9 | 281 | 3.2 | 14.5 | 0.00 | 0.05 | 0.00 | 60 | 1009.3 |
| 20260506131053 | 9 | 341 | 3.2 | 9.7 | 0.00 | 0.05 | 0.00 | 58 | 1009.0 |
| 20260506130554 | 9 | 290 | 4.8 | 9.7 | 0.00 | 0.05 | 0.00 | 59 | 1009.1 |
| 20260506130057 | 8 | 351 | 3.2 | 16.1 | 0.00 | 0.05 | 0.00 | 61 | 1009.2 |
| 20260506125555 | 8 | 360 | 4.8 | 16.1 | 0.00 | 0.05 | 0.00 | 63 | 1009.1 |
| 20260506125055 | 8 | 9 | 4.8 | 14.5 | 0.00 | 0.05 | 0.00 | 63 | 1009.0 |
| 20260506124556 | 8 | 268 | 4.8 | 14.5 | 0.00 | 0.05 | 0.00 | 62 | 1009.0 |
| 20260506124055 | 8 | 350 | 4.8 | 16.1 | 0.00 | 0.05 | 0.00 | 63 | 1009.0 |
| 20260506123554 | 8 | 332 | 3.2 | 16.1 | 0.00 | 0.05 | 0.00 | 64 | 1008.8 |
| 20260506123058 | 7 | 352 | 3.2 | 12.9 | 0.00 | 0.05 | 0.00 | 65 | 1008.9 |
| 20260506122555 | 7 | 305 | 3.2 | 9.7 | 0.00 | 0.05 | 0.00 | 65 | 1008.8 |
| 20260506122054 | 7 | 0 | 3.2 | 9.7 | 0.00 | 0.05 | 0.00 | 66 | 1008.7 |
| 20260506121600 | 7 | 360 | 1.6 | 9.7 | 0.00 | 0.05 | 0.00 | 67 | 1008.7 |
| 20260506121055 | 7 | 5 | 1.6 | 6.4 | 0.00 | 0.05 | 0.00 | 67 | 1008.5 |
| 20260506120557 | 6 | 299 | 1.6 | 6.4 | 0.00 | 0.05 | 0.00 | 70 | 1008.3 |
| 20260506115555 | 6 | 334 | 0.0 | 6.4 | 0.00 | 0.05 | 0.00 | 72 | 1008.2 |
| 20260506115056 | 6 | 0 | 1.6 | 6.4 | 0.00 | 0.05 | 0.00 | 71 | 1008.2 |
| 20260506114556 | 6 | 0 | 1.6 | 8.0 | 0.00 | 0.05 | 0.00 | 70 | 1008.2 |
| 20260506114055 | 6 | 318 | 1.6 | 8.0 | 0.00 | 0.05 | 0.00 | 71 | 1008.1 |
| 20260506113555 | 6 | 329 | 0.0 | 4.8 | 0.00 | 0.05 | 0.00 | 73 | 1008.1 |
| 20260506113054 | 6 | 329 | 0.0 | 4.8 | 0.00 | 0.05 | 0.00 | 72 | 1008.1 |
| 20260506112557 | 5 | 0 | 1.6 | 4.8 | 0.00 | 0.05 | 0.00 | 72 | 1008.1 |
| 20260506112056 | 5 | 329 | 0.0 | 3.2 | 0.00 | 0.05 | 0.00 | 72 | 1008.0 |
| 20260506111554 | 6 | 0 | 0.0 | 6.4 | 0.00 | 0.05 | 0.00 | 71 | 1007.9 |
| 20260506111058 | 6 | 0 | 0.0 | 6.4 | 0.00 | 0.05 | 0.00 | 71 | 1008.0 |
| 20260506110555 | 6 | 338 | 0.0 | 0.0 | 0.00 | 0.05 | 0.00 | 71 | 1007.8 |
| 20260506110058 | 5 | 0 | 0.0 | 0.0 | 0.00 | 0.05 | 0.00 | 72 | 1007.7 |
| 20260506105555 | 5 | 0 | 0.0 | 0.0 | 0.00 | 0.05 | 0.00 | 72 | 1007.5 |
| 20260506105058 | 5 | 0 | 0.0 | 0.0 | 0.00 | 0.05 | 0.00 | 72 | 1007.4 |
| 20260506104601 | 5 | 0 | 0.0 | 0.0 | 0.00 | 0.05 | 0.00 | 72 | 1007.3 |
| 20260506104054 | 6 | 0 | 0.0 | 4.8 | 0.00 | 0.05 | 0.00 | 72 | 1007.2 |
| 20260506103556 | 6 | 0 | 0.0 | 6.4 | 0.00 | 0.05 | 0.00 | 71 | 1007.3 |
| 20260506103056 | 6 | 0 | 0.0 | 6.4 | 0.00 | 0.05 | 0.00 | 72 | 1007.3 |
| 20260506102557 | 6 | 337 | 0.0 | 6.4 | 0.00 | 0.05 | 0.00 | 71 | 1007.2 |
| 20260506102055 | 6 | 0 | 0.0 | 6.4 | 0.00 | 0.05 | 0.00 | 71 | 1007.2 |
| 20260506101557 | 6 | 337 | 1.6 | 6.4 | 0.00 | 0.05 | 0.00 | 70 | 1007.0 |
| 20260506101054 | 6 | 0 | 1.6 | 6.4 | 0.00 | 0.05 | 0.00 | 71 | 1007.0 |
| 20260506100554 | 6 | 311 | 0.0 | 6.4 | 0.00 | 0.05 | 0.00 | 71 | 1007.2 |
| 20260506100109 | 6 | 313 | 0.0 | 4.8 | 0.00 | 0.05 | 0.00 | 71 | 1007.1 |
| 20260506095558 | 6 | 0 | 0.0 | 4.8 | 0.00 | 0.05 | 0.00 | 70 | 1007.2 |
| 20260506095057 | 7 | 327 | 0.0 | 4.8 | 0.00 | 0.05 | 0.00 | 71 | 1007.2 |
| 20260506094555 | 7 | 327 | 0.0 | 4.8 | 0.00 | 0.05 | 0.00 | 70 | 1007.0 |
| 20260506094054 | 7 | 327 | 1.6 | 4.8 | 0.00 | 0.05 | 0.00 | 68 | 1007.0 |
| 20260506093555 | 7 | 0 | 0.0 | 6.4 | 0.00 | 0.05 | 0.00 | 70 | 1007.0 |
| 20260506093058 | 7 | 0 | 1.6 | 6.4 | 0.00 | 0.05 | 0.00 | 68 | 1007.0 |
| 20260506092557 | 7 | 300 | 1.6 | 6.4 | 0.00 | 0.05 | 0.00 | 68 | 1007.0 |
| 20260506092057 | 7 | 0 | 1.6 | 8.0 | 0.00 | 0.05 | 0.00 | 69 | 1006.9 |
| 20260506091556 | 7 | 315 | 0.0 | 8.0 | 0.00 | 0.05 | 0.00 | 68 | 1006.6 |
| 20260506091056 | 7 | 348 | 3.2 | 8.0 | 0.00 | 0.05 | 0.00 | 68 | 1006.7 |
| 20260506090554 | 7 | 20 | 1.6 | 8.0 | 0.00 | 0.05 | 0.00 | 68 | 1006.7 |
| 20260506090056 | 7 | 329 | 1.6 | 8.0 | 0.00 | 0.05 | 0.00 | 70 | 1006.8 |
| 20260506085555 | 7 | 0 | 1.6 | 6.4 | 0.00 | 0.05 | 0.00 | 70 | 1006.7 |
| 20260506085054 | 7 | 360 | 0.0 | 6.4 | 0.00 | 0.05 | 0.00 | 69 | 1006.6 |
| 20260506084602 | 7 | 0 | 3.2 | 6.4 | 0.00 | 0.05 | 0.00 | 69 | 1006.3 |
| 20260506084055 | 7 | 310 | 1.6 | 8.0 | 0.00 | 0.05 | 0.00 | 70 | 1006.4 |
| 20260506083557 | 7 | 0 | 1.6 | 8.0 | 0.00 | 0.05 | 0.00 | 69 | 1006.4 |
| 20260506083058 | 7 | 303 | 1.6 | 8.0 | 0.00 | 0.05 | 0.00 | 68 | 1006.4 |
| 20260506082555 | 7 | 343 | 1.6 | 6.4 | 0.00 | 0.05 | 0.00 | 70 | 1006.3 |
| 20260506082055 | 7 | 317 | 1.6 | 8.0 | 0.00 | 0.05 | 0.00 | 68 | 1006.6 |
| 20260506081558 | 7 | 288 | 1.6 | 8.0 | 0.00 | 0.05 | 0.00 | 69 | 1006.4 |
| 20260506081055 | 7 | 336 | 3.2 | 12.9 | 0.00 | 0.05 | 0.00 | 68 | 1006.3 |
| 20260506080556 | 7 | 352 | 3.2 | 12.9 | 0.00 | 0.05 | 0.00 | 68 | 1006.4 |
| 20260506073057 | 7 | 327 | 1.6 | 4.8 | 0.00 | 0.05 | 0.00 | 69 | 1006.2 |
| 20260506072555 | 7 | 327 | 0.0 | 6.4 | 0.00 | 0.05 | 0.00 | 68 | 1006.4 |
| 20260506072058 | 7 | 0 | 1.6 | 6.4 | 0.00 | 0.05 | 0.00 | 70 | 1006.5 |
| 20260506071559 | 7 | 316 | 1.6 | 4.8 | 0.00 | 0.05 | 0.00 | 70 | 1006.5 |
| 20260506071054 | 7 | 0 | 1.6 | 4.8 | 0.00 | 0.05 | 0.00 | 70 | 1006.5 |
| 20260506070558 | 7 | 306 | 1.6 | 4.8 | 0.00 | 0.05 | 0.00 | 70 | 1006.4 |
| 20260506062055 | 7 | 355 | 0.0 | 0.0 | 0.00 | 0.05 | 0.00 | 70 | 1006.7 |
| 20260506061556 | 7 | 0 | 0.0 | 0.0 | 0.00 | 0.05 | 0.00 | 70 | 1006.7 |
| 20260506061057 | 7 | 0 | 0.0 | 1.6 | 0.00 | 0.05 | 0.00 | 70 | 1006.8 |
| 20260506060555 | 7 | 0 | 0.0 | 1.6 | 0.00 | 0.05 | 0.00 | 70 | 1006.9 |
| 20260506051055 | 7 | 0 | 0.0 | 0.0 | 0.00 | 0.13 | 0.00 | 73 | 1006.6 |
| 20260506050555 | 7 | 0 | 0.0 | 0.0 | 0.00 | 0.13 | 0.00 | 74 | 1006.7 |
| 20260506050103 | 7 | 0 | 0.0 | 0.0 | 0.00 | 0.13 | 0.00 | 71 | 1006.6 |
| 20260506045054 | 7 | 0 | 0.0 | 0.0 | 0.00 | 0.58 | 0.00 | 73 | 1006.9 |
| 20260506044557 | 7 | 0 | 0.0 | 0.0 | 0.00 | 0.58 | 0.00 | 76 | 1006.8 |
| 20260506044054 | 8 | 0 | 0.0 | 0.0 | 0.00 | 0.58 | 0.00 | 74 | 1006.9 |
| 20260506043554 | 8 | 0 | 0.0 | 0.0 | 0.00 | 0.58 | 0.00 | 73 | 1006.8 |
| 20260506043056 | 8 | 0 | 0.0 | 0.0 | 0.00 | 0.58 | 0.00 | 74 | 1006.7 |
| 20260506042554 | 8 | 0 | 0.0 | 0.0 | 0.00 | 0.58 | 0.00 | 73 | 1006.6 |
| 20260506042058 | 8 | 0 | 0.0 | 0.0 | 0.00 | 0.58 | 0.00 | 75 | 1006.6 |
| 20260506041602 | 8 | 0 | 0.0 | 0.0 | 0.00 | 0.58 | 0.00 | 73 | 1006.6 |
| 20260506041055 | 8 | 0 | 0.0 | 0.0 | 0.00 | 0.58 | 0.00 | 71 | 1006.7 |
| 20260506040556 | 8 | 0 | 0.0 | 0.0 | 0.00 | 0.58 | 0.00 | 73 | 1006.7 |
| 20260506040110 | 8 | 0 | 0.0 | 0.0 | 0.00 | 0.58 | 0.00 | 74 | 1006.7 |
| 20260506035555 | 8 | 0 | 0.0 | 0.0 | 0.00 | 0.61 | 0.58 | 74 | 1006.9 |
| 20260506035055 | 8 | 0 | 0.0 | 0.0 | 0.00 | 0.61 | 0.58 | 72 | 1006.8 |
| 20260506034555 | 8 | 0 | 0.0 | 0.0 | 0.00 | 0.61 | 0.58 | 72 | 1006.6 |
| 20260506034054 | 8 | 0 | 0.0 | 0.0 | 0.00 | 0.61 | 0.58 | 72 | 1006.6 |
| 20260506033554 | 8 | 0 | 0.0 | 0.0 | 0.00 | 0.61 | 0.58 | 67 | 1006.4 |
| 20260506033056 | 8 | 0 | 0.0 | 0.0 | 0.00 | 0.61 | 0.58 | 67 | 1006.4 |
| 20260506032555 | 8 | 0 | 0.0 | 0.0 | 0.00 | 0.61 | 0.58 | 68 | 1006.2 |
| 20260506032055 | 8 | 0 | 0.0 | 0.0 | 0.00 | 0.61 | 0.58 | 70 | 1006.2 |
| 20260506031556 | 8 | 0 | 0.0 | 0.0 | 0.00 | 0.61 | 0.58 | 70 | 1006.3 |
| 20260506031057 | 8 | 0 | 0.0 | 0.0 | 0.00 | 0.61 | 0.58 | 69 | 1006.4 |
| 20260506030556 | 8 | 0 | 0.0 | 0.0 | 0.00 | 0.61 | 0.58 | 69 | 1006.5 |
| 20260506030107 | 8 | 0 | 0.0 | 0.0 | 0.00 | 0.61 | 0.58 | 69 | 1006.7 |
| 20260506025555 | 8 | 0 | 0.0 | 0.0 | 0.00 | 0.61 | 0.58 | 68 | 1006.7 |
| 20260506025055 | 8 | 0 | 0.0 | 0.0 | 0.00 | 0.61 | 0.58 | 69 | 1006.6 |
| 20260506024558 | 8 | 0 | 0.0 | 0.0 | 0.00 | 0.61 | 0.58 | 70 | 1006.5 |
| 20260506024056 | 8 | 0 | 0.0 | 0.0 | 0.00 | 0.61 | 0.58 | 70 | 1006.6 |
| 20260506023554 | 8 | 0 | 0.0 | 0.0 | 0.00 | 0.61 | 0.58 | 69 | 1006.6 |
| 20260506023057 | 8 | 0 | 0.0 | 0.0 | 0.00 | 0.61 | 0.58 | 65 | 1006.5 |
| 20260506022555 | 8 | 0 | 0.0 | 0.0 | 0.00 | 0.61 | 0.58 | 65 | 1006.5 |
| 20260506022055 | 8 | 0 | 0.0 | 0.0 | 0.00 | 0.61 | 0.58 | 64 | 1006.6 |
| 20260506021609 | 8 | 0 | 0.0 | 0.0 | 0.00 | 0.61 | 0.58 | 66 | 1006.5 |
| 20260506021055 | 8 | 0 | 0.0 | 0.0 | 0.00 | 0.61 | 0.58 | 70 | 1006.6 |
| 20260506020554 | 8 | 0 | 0.0 | 0.0 | 0.00 | 0.61 | 0.58 | 67 | 1006.5 |
| 20260506020059 | 8 | 0 | 0.0 | 0.0 | 0.00 | 0.61 | 0.58 | 66 | 1006.5 |
| 20260506015555 | 8 | 0 | 0.0 | 0.0 | 0.00 | 0.61 | 0.58 | 64 | 1006.6 |
| 20260506015057 | 8 | 0 | 0.0 | 3.2 | 0.00 | 0.61 | 0.58 | 66 | 1006.5 |
| 20260506014612 | 8 | 0 | 0.0 | 4.8 | 0.00 | 0.61 | 0.58 | 63 | 1006.4 |
| 20260506014054 | 8 | 0 | 0.0 | 4.8 | 0.00 | 0.61 | 0.58 | 66 | 1006.4 |
| 20260506013554 | 8 | 310 | 0.0 | 3.2 | 0.00 | 0.61 | 0.58 | 66 | 1006.2 |
| 20260506013100 | 9 | 310 | 0.0 | 3.2 | 0.00 | 0.61 | 0.58 | 63 | 1006.0 |
| 20260506012555 | 9 | 0 | 0.0 | 3.2 | 0.00 | 0.61 | 0.58 | 63 | 1006.2 |
| 20260506012059 | 8 | 0 | 0.0 | 3.2 | 0.00 | 0.61 | 0.58 | 65 | 1006.0 |
| 20260506011556 | 8 | 0 | 0.0 | 3.2 | 0.00 | 0.61 | 0.58 | 66 | 1006.0 |
| 20260506011055 | 8 | 0 | 0.0 | 3.2 | 0.00 | 0.61 | 0.58 | 69 | 1006.0 |
| 20260506010556 | 9 | 0 | 0.0 | 3.2 | 0.00 | 0.61 | 0.58 | 64 | 1005.8 |
| 20260506010107 | 9 | 0 | 0.0 | 3.2 | 0.00 | 0.61 | 0.58 | 63 | 1005.9 |
| 20260506005555 | 9 | 310 | 0.0 | 3.2 | 0.00 | 0.61 | 0.58 | 65 | 1005.9 |
| 20260506005054 | 9 | 310 | 0.0 | 3.2 | 0.00 | 0.61 | 0.58 | 63 | 1006.0 |
| 20260506004602 | 10 | 310 | 0.0 | 4.8 | 0.00 | 0.61 | 0.58 | 62 | 1006.0 |
| 20260506004055 | 10 | 310 | 0.0 | 4.8 | 0.00 | 0.61 | 0.58 | 58 | 1006.0 |
| 20260506003555 | 10 | 310 | 0.0 | 1.6 | 0.00 | 0.61 | 0.58 | 59 | 1005.9 |
| 20260506003104 | 10 | 0 | 0.0 | 6.4 | 0.00 | 0.61 | 0.58 | 61 | 1006.1 |
| 20260506002556 | 10 | 0 | 0.0 | 6.4 | 0.00 | 0.61 | 0.58 | 59 | 1006.2 |
| 20260506002056 | 10 | 317 | 1.6 | 6.4 | 0.00 | 0.61 | 0.58 | 59 | 1006.2 |
| 20260506001601 | 10 | 340 | 1.6 | 6.4 | 0.00 | 0.61 | 0.58 | 60 | 1006.1 |
| 20260506001054 | 10 | 0 | 1.6 | 9.7 | 0.00 | 0.61 | 0.58 | 61 | 1006.1 |
| 20260506000555 | 10 | 315 | 1.6 | 9.7 | 0.00 | 0.61 | 0.58 | 61 | 1006.0 |
| 20260506000107 | 10 | 288 | 0.0 | 6.4 | 0.00 | 0.61 | 0.58 | 64 | 1006.1 |
| 20260505235556 | 10 | 0 | 1.6 | 6.4 | 0.00 | 0.69 | 0.58 | 62 | 1006.0 |
| 20260505235055 | 10 | 0 | 1.6 | 3.2 | 0.00 | 0.69 | 0.58 | 62 | 1005.9 |
| 20260505234557 | 10 | 301 | 1.6 | 6.4 | 0.00 | 0.69 | 0.58 | 62 | 1005.9 |
| 20260505234057 | 10 | 300 | 0.0 | 6.4 | 0.00 | 0.69 | 0.58 | 63 | 1005.8 |
| 20260505233556 | 10 | 360 | 0.0 | 6.4 | 0.00 | 0.69 | 0.58 | 63 | 1005.7 |